Flag for Canada Weather past 2 weeks in Windsor, Ontario, Canada

Now
68 °F

Passing clouds.


Feels Like: 68 °F
Forecast: 66 / 88 °F
Wind: 3 mph from East

Location: Windsor Weather Station

Current Time: Jul 29, 2015 at 6:00:15 AM

Latest Report: Jul 29, 2015 at 5:00 AM


Visibility: 15 mi

Pressure: 29.94 "Hg

Humidity: 94%

Dew point: 66 °F

Location of WindsorLocation

Historic Weather in Windsor — Graph

°F

Windsor temperature yesterday

Maximum temperature yesterday: 88 °F (at 2:00 PM)
Minimum temperature yesterday: 66 °F (at 5:00 AM)
Average temperature yesterday: 78 °F

Past Weeks' High & Low Weather Summary

 TemperatureHumidityPressure
High90 °F (Jul 18, 2:00 PM)100% (Jul 18, 5:00 AM)30.10 "Hg (Jul 18, 5:00 AM)
Low54 °F (Jul 16, 5:00 AM)37% (Jul 23, 1:00 PM)29.47 "Hg (Jul 14, 1:00 PM)
Average74 °F71%29.90 "Hg
* Reported Jul 14 5:00 AM — Jul 29 5:00 AM, Windsor, Weather by CustomWeather, © 2015

Note: Actual official high and low records may vary slightly from our data, if they occured in-between our weather recording intervals... More about our weather records

Advertising

Windsor weather history for previous 24 hours

 ConditionsComfort  
Time TempWeatherWind HumidityBarometerVisibility
5:00 AM
Wed, Jul 29
68 °FPassing clouds.3 mph94%29.94 "Hg15 mi
4:00 AM68 °FPassing clouds.2 mph94%29.95 "Hg15 mi
3:00 AM70 °FPassing clouds.No wind88%29.97 "Hg15 mi
2:00 AM68 °FPassing clouds.No wind88%29.98 "Hg15 mi
1:00 AM73 °FPassing clouds.5 mph74%30.00 "Hg15 mi
12:00 AM73 °FPassing clouds.3 mph74%30.00 "Hg15 mi
11:00 PM
Tue, Jul 28
75 °FPassing clouds.5 mph69%29.99 "Hg15 mi
10:00 PM75 °FPassing clouds.2 mph69%29.97 "Hg15 mi
9:00 PM79 °FPartly sunny.5 mph65%29.95 "Hg15 mi
8:00 PM82 °FPartly sunny.6 mph55%29.95 "Hg15 mi
7:00 PM86 °FPartly sunny.6 mph52%29.96 "Hg15 mi
6:00 PM86 °FPartly sunny.10 mph49%29.96 "Hg15 mi
5:00 PM86 °FPartly sunny.12 mph52%29.98 "Hg15 mi
4:00 PM88 °FPartly sunny.7 mph52%30.00 "Hg15 mi
3:00 PM88 °FPassing clouds.6 mph52%30.00 "Hg15 mi
2:00 PM88 °FPassing clouds.3 mph43%30.01 "Hg15 mi
1:00 PM86 °FPassing clouds.9 mph52%30.02 "Hg15 mi
12:00 PM86 °FPassing clouds.6 mph55%30.02 "Hg15 mi
11:00 AM84 °FPassing clouds.5 mph55%30.03 "Hg15 mi
10:00 AM82 °FSunny.6 mph66%30.03 "Hg15 mi
9:00 AM79 °FSunny.No wind70%30.04 "Hg15 mi
8:00 AM73 °FSunny.No wind83%30.03 "Hg15 mi
7:00 AM66 °FClear.No wind94%30.03 "Hg12 mi
6:00 AM68 °FPassing clouds.No wind88%30.01 "Hg12 mi
Weather by CustomWeather, © 2015

See weather overviewHow to use our weather pages